Re: [討論] 在雪隧開最高速限被後車閃大燈?

看板 Car
作者
時間
留言 100則留言,57人參與討論
推噓 35  ( 46推 11噓 43→ )
討論串 20
台灣人真的有趣,人家開在法定限速內! 明明是逼車的人違規了不去檢討逼車的人! 回文一堆在說請跟上車流或是提高限速的 雪隧就是兩個車道禁止超車,趕時間麻煩早點出門! 趕投胎的慢走不送! 麻煩多譴責一下逼車的垃圾! ※ 引述《benedict76 (ben)》之銘言: : ※ 引述《jazzcai (如果有一天)》之銘言: : : 如題 : : 魯叔我今早6點多開在雪隧往宜蘭方向 : : ACC定速90Km/hr(雪隧上限就90) : : 然後後車貼我很近 : : 看照後鏡目測後車離我應該不超過20公尺 : : 還對我閃大燈 : : 這應該不是我開太慢吧?! : : 總之我就沒理他繼續龜好 : : (當時有一個想法是想踩煞車嚇嚇他 : : 但我還是沒做這件事) : : 果不其然 : : 一出雪隧後,後車就立馬加速從我旁邊刷卡刷過去 : : 然後出雪隧的第一個閘道就下了 : : 不知道超我有什麼意義 : : 對了,那台後車是RAV4 : : 總之想請問一下 : : 在雪隧開最高速限被後車閃大燈 : : 單兵該如何處置? : : ----- : : Sent from JPTT on my iPhone : 你全原廠的話表速90實際一定沒90,有行車 : 記錄器看就知道大概表速跟gps差多少,進雪 : 隧可以照GPS的設定。 : 另外依照規定超速10公里內是勸導可以不罰 : 我t牌車表速跟GPS大概差4,進雪隧我都調 : 100左右,遇到下坡會變101或102剛剛好在 : 超速會罰的邊緣。 : 另外用後照鏡看距離誤差會太大,距離可以參 : 考兩邊的消防門間距。 --
※ 發信站: 批踢踢實業坊(ptt.cc), 來自: 36.227.214.196 (臺灣) ※ 文章網址: https://www.ptt.cc/bbs/car/M.1659746641.A.BD4.html
1FFaFaFaT: 今天改成區間40、50不知道有沒有人會靠北法定速度 08/06 08:53
2FFaFaFaT: 嘻嘻 08/06 08:53
3FEKman: 飆仔不但不懂法律,還可以隨便改法律,好厲害 08/06 08:56
4Ftcod: 開在法定速限內也要看你開在那個車道阿 08/06 09:00
5Feulbos: 飆仔邏輯: 前面沒車 要開200跟上車流才對 08/06 09:08
6Feulbos: 不跟車流就乖乖走省道 08/06 09:09
7FVisnjic: 正解 終於看到正常的邏輯了 笑死XD 08/06 09:15
8Fspihc: 推 一篇文釣出一堆躁鬱症魯蛇 08/06 09:17
9Fga047768: 我都定70 08/06 09:25
10Flobo51: 正確啊 重點是在說逼車仔不是在討論速度多少上限 08/06 09:34
11Flobo51: 開在合法速限內當然合理 08/06 09:34
12Fismylife29: 同意 說可以開100的去叫政府改限速100啊 08/06 09:44
13Fpreisner: 不趕時間的請不要開內線! 08/06 09:48
14Fcreart: 其實一堆人時間根本不值錢 08/06 10:02
15Fgaryjcw: 推 08/06 10:03
16Fdaipon: 而且就算速限改到100,也會說怎麼不開到109 08/06 10:10
17FEKman: 腦袋有洞啊,飆仔說雪隧開90會造成塞車,開104就不 08/06 10:13
18FEKman: 會塞車XD 08/06 10:13
19FEKman: 也不看看自己那個薪水,誰管你上班提早幾分鐘到 08/06 10:13
20Fs3f4e9g6aa7: 同意 08/06 10:14
21Filoveyys: 輪家趕著要再去逼下一台車呢 討厭 08/06 10:17
22Fbbjackson: 調到110他們也會說為什麼不開120 08/06 10:24
23Fs10117945: 阿隧道廣播就說跟上車流啊 08/06 10:24
24FHONDA1023: 昨天晚上國一開在中線,定速105還被飆仔閃燈,超棒d 08/06 10:26
25FHONDA1023: er 08/06 10:27
26Foxoxx: 正確,一堆趕投胎的 08/06 10:30
27Fbelucky: 哈哈哈哈 推 08/06 10:33
28Fbelucky: 這邊真的一堆飆仔 08/06 10:33
29Frelaxcloud: 隧道廣播跟上車流,沒說你可以超速…飆仔怎麼只喜 08/06 10:37
30Frelaxcloud: 歡看自己想看的 08/06 10:38
31Fga047768: 上次逼很進的偷油塔,直接送違規使用燈光霧燈 08/06 10:39
32Fibanes: 推,開90若被閃銾麰馬0龜死飆仔 08/06 10:40
33FCsir: 以後違規超速的都被收掉,不管內線外線超車道隧道 08/06 10:43
34Fafune12369: 先幫你補血 免得飆仔躁鬱症發作狂噓你 08/06 10:52
35Fbojan0701: 趕時間的不要開雪隧啊...或是更早出發啊 08/06 11:06
36Fbenedict76: 怎不說開太慢的不要佔用雪隧? 08/06 11:07
37Fbenedict76: 北宜可以給你慢慢開。 08/06 11:08
38Fluoqr: 遇到閃大燈的我就開更慢 08/06 11:10
39Fluoqr: 36F 法定速限叫慢 你愛快怎麼不去北宜 08/06 11:14
40Fluoqr: 北宜專收你們這種飆仔 08/06 11:14
41Fbenedict76: 表速90未達法定限速 08/06 11:15
42Fluoqr: 差個5km還10km是能快幾分 飆仔根本搞笑 08/06 11:16
43Fluoqr: 在那吵表速不是真速才好笑 這叫統一標準懂不懂 你那 08/06 11:18
44Fluoqr: 種自由心証根本自助餐 08/06 11:18
45Fpolaroidd: 台灣垃圾本來就一堆 逼車 沒保持車距 違法了 還自以 08/06 11:25
46Fpolaroidd: 為正義 08/06 11:25
47Fpolaroidd: 高速公路開外側車道 速限上 逼車的也不少 要快不會 08/06 11:28
48Fpolaroidd: 去內側車道嗎 垃圾一堆 08/06 11:28
49Fa0972723495: 譴責一下龜仔的垃圾 08/06 11:46
50Flimulus: 正解!逼車仔不得好死! 08/06 11:47
51Fga047768: 本日最優質文。 08/06 11:48
52Fsnap007: 雪隧無所謂超車道,前車也沒多慢,趕時間要超車自 08/06 11:50
53Fsnap007: 己違規跨越雙白線就好,敢逼車不敢違規? 08/06 11:50
54Fkenjigan: 正確推 08/06 11:58
55Fedkoven: 一堆北七不去想為什麼隧道內都是雙白線,只想超車 08/06 12:05
56FYCL13: 以前三寶是自己違規,現在的三寶是要求別人違規呀, 08/06 12:05
57FYCL13: 被搓破還會惱羞地反酸沒有超速的是龜車呀 08/06 12:06
58FYCL13: 很多三寶的邏輯都是我覺得你有錯,那我就可以惡搞你 08/06 12:07
59FYCL13: ,所以那些人當然不會覺得逼車有錯啦 08/06 12:07
60Falex0203cool: 雪隧開90跟100 只差40秒出頭 噓仔都很尿急 08/06 12:08
61Falex0203cool: 整天在那跳針錶速不是實際速度 想開快自己跨線違規 08/06 12:10
62Falex0203cool: 還要求前方守法的讓開喔? 08/06 12:11
63Fbenedict76: 差40秒體感就差不少啊,難道別人的時間不是時間? 08/06 12:15
64FPlaneCloud: 飆仔自己想死不要拖別人下水好不好 08/06 12:21
65FwhitePlume: 推 08/06 12:30
66FookiniSN9: 小心喔 看前幾篇討論就知道車板一堆邏輯壞掉的飆仔X 08/06 12:38
67FookiniSN9: DDD 08/06 12:38
68Ftengerinedog: 匝道限速40你真的開40?你超過40是因為你飆仔還是 08/06 12:46
69Ftengerinedog: 因為限速不合理而已匝道沒有測速開罰? 08/06 12:46
70Fchen841115: 所以閘道限速40 有人開40 你就覺得是龜車然後逼車? 08/06 12:49
71Fga047768: 匝道40就開40啊…有什麼問題? 08/06 12:52
72Ffirfox: 譴責逼車跟希望調高速限這兩件事情不衝突且可以同 08/06 12:54
73Ftengerinedog: 開40很好啊,捫心自問有做到喔 08/06 12:54
74Ffirfox: 時做吧!? 08/06 12:54
75Fggcggc: 我都開40 08/06 12:59
76Fga047768: 匝道穩穩開40連煞車都不用,飆仔先衝到100,轉彎瞬 08/06 12:59
77Fga047768: 間壓到20有比較好? 坐你車的乘客會吐吧。 08/06 12:59
78Fga047768: 匝道也就幾百公尺,屎已經到肛門口了嗎…? 08/06 13:03
79FNinJa: 他就不是最高速限啊 08/06 13:09
80Faustin0353: 請教:沒車就開外線;取暖:違規會被開單 08/06 13:27
81Fwen0418: 飆仔怎不去北宜超,垃圾一個 08/06 13:29
82Fbomda: 難怪台灣交通這麼亂 一堆連交通規則都不遵守的 還 08/06 13:32
83Fbomda: 大剌剌叫人超速 08/06 13:32
84FookiniSN9: 飆仔匝道時速開89 問前面照速限40的乖乖牌駕駛是在 08/06 13:33
85FookiniSN9: 慢三小 08/06 13:33
86Fpeehs: 行車貼出來啦 保證前面沒車 外車道也比他快 我開這 08/06 13:35
87Fpeehs: 麼久還真沒被閃過 08/06 13:35
88FLowpapa: 三寶真多 08/06 13:41
89Fultratimes: 沒人叫你一開始選內線,要超速也不是要換道也不是 08/06 13:48
90Fultratimes: 的窘境也是自己造成,自己造成本來就要自己承擔 08/06 13:48
91Fyur: 逼車的大爺最大啊 08/06 14:02
92Fgm3252: 優質文章 08/06 14:04
93Fwade801210: 龜車自嗨文 08/06 14:21
94FLexusNo1: 幫補血,好多飆仔崩潰噓xddd 08/06 15:26
95Feddy13: 笑看逼車仔崩潰到亂酸守法駕駛呀 08/06 18:20
96Fyesyesyesyes: 之前南迴就有兩台車開20並排,然後板上罵翻喔!照你 08/06 18:49
97Fyesyesyesyes: 邏輯這樣也是很合理的嗎? 08/06 18:49
98Fgooff: 逼車仔吃大便吧 08/06 19:20
99Fga047768: 假塞 08/06 19:37
100FT19871124: 不要推文法規狂魔,在現實變成違規達人就好了XD 08/06 21:38

完整討論串

35 >> Re: [討論] 在雪隧開最高速限被後車閃大燈?
100 car 2022-08-06 08:43

car 最新熱門文章

19 [問題] skoda訂車問題
36 car 2022-08-06 22:28
15 [菜單] VOLVO XC40 T2
35 car 2022-08-06 19:47
75 [電車] KIA EV6 GTline 開箱
121 car 2022-08-06 18:53
20 [問題] 2005 Altis避震器更換
42 car 2022-08-06 16:25
83 Picanto、Ignis、Yaris選擇請益
135 car 2022-08-06 15:32
21 [問題] 成長型汽座
81 car 2022-08-06 13:49
155 [問題] 馬川 vs. Corolla sport
245 car 2022-08-06 11:39
24 [心得] ES 200 兩週心得
35 car 2022-08-06 11:20
35 [問題] 為何A7吸睛很多?
69 car 2022-08-06 10:38
16 [菜單] Corolla Cross 汽油豪華
31 car 2022-08-06 00:35
37 [分享] 在柬埔寨看到的車子
64 car 2022-08-06 00:02
53 [問題] 女友爸爸 買車詢問
123 car 2022-08-05 21:53